SXS4AW LTBJ-EICK

Flight info

Callsign SXS4AW
Flight time 4h 9m
Altitude 36000
Route VEXOL UY134 NEMIS UL608 GIKAS/N0470F340 DCT FSK DCT DISOR DCT LONTA UL608 DOLEV DCT ERKIR/N0464F360 DCT BABEG DCT LIRSU DCT DENUT L610 KOPUL Q60 OKSAW DCT BIBPE DCT TIGWE DCT ARPAK DCT FELCA DCT FADZU DCT NICXI DCT OFSOX DCT BANBA DCT VAPAL VAPAL1H
Aircraft B38M/M-SADE2E3GIJ4J7RW/LB1D1

Departure

Time 2026-05-07 16:58
Airport Adnan Menderes International Airport (LTBJ)

Arrival

Time 2026-05-07 21:08
Airport Cork International Airport (EICK)
Time Latitude Longitude Altitude Speed Heading
2026-05-07 16:26 38.29493 27.15001 413 ft 0 kts 256°
2026-05-07 16:47 38.29493 27.15002 412 ft 1 kts 257°
2026-05-07 16:48 38.29497 27.15021 411 ft 2 kts 255°
2026-05-07 16:48 38.29501 27.15041 411 ft 2 kts 256°
2026-05-07 16:48 38.29502 27.15065 411 ft 2 kts 290°
2026-05-07 16:48 38.29493 27.15083 411 ft 2 kts 323°
2026-05-07 16:49 38.29483 27.15090 411 ft 1 kts 345°
2026-05-07 16:49 38.29476 27.15091 411 ft 0 kts 347°
2026-05-07 16:51 38.29480 27.15090 411 ft 1 kts 347°
2026-05-07 16:51 38.29506 27.15082 411 ft 5 kts 345°
2026-05-07 16:51 38.29557 27.15066 413 ft 8 kts 346°
2026-05-07 16:51 38.29629 27.15044 414 ft 11 kts 346°
2026-05-07 16:52 38.29721 27.15017 417 ft 14 kts 346°
2026-05-07 16:52 38.29823 27.14986 422 ft 14 kts 347°
2026-05-07 16:52 38.29905 27.14961 425 ft 9 kts 351°
2026-05-07 16:52 38.29951 27.15028 423 ft 13 kts 76°
2026-05-07 16:53 38.29972 27.15141 424 ft 10 kts 76°
2026-05-07 16:53 38.29988 27.15224 424 ft 7 kts 65°
2026-05-07 16:53 38.30054 27.15234 426 ft 11 kts 348°
2026-05-07 16:53 38.30143 27.15208 428 ft 12 kts 346°
2026-05-07 16:54 38.30231 27.15181 431 ft 12 kts 347°
2026-05-07 16:54 38.30327 27.15153 434 ft 13 kts 346°
2026-05-07 16:54 38.30413 27.15127 436 ft 10 kts 346°
2026-05-07 16:54 38.30470 27.15110 437 ft 6 kts 346°
2026-05-07 16:55 38.30506 27.15098 437 ft 5 kts 346°
2026-05-07 16:55 38.30553 27.15085 437 ft 7 kts 347°
2026-05-07 16:55 38.30593 27.15099 437 ft 5 kts 55°
2026-05-07 16:55 38.30602 27.15134 437 ft 0 kts 77°
2026-05-07 16:56 38.30602 27.15138 437 ft 0 kts 77°
2026-05-07 16:56 38.30604 27.15148 437 ft 1 kts 77°
2026-05-07 16:56 38.30617 27.15217 437 ft 5 kts 76°
2026-05-07 16:57 38.30624 27.15261 437 ft 2 kts 84°
2026-05-07 16:57 38.30610 27.15280 437 ft 3 kts 152°
2026-05-07 16:57 38.30602 27.15284 437 ft 2 kts 160°
2026-05-07 16:57 38.30468 27.15326 436 ft 49 kts 167°
2026-05-07 16:58 38.29802 27.15522 424 ft 124 kts 166°
2026-05-07 16:58 38.28625 27.15869 425 ft 181 kts 171°
2026-05-07 16:58 38.27243 27.16244 1089 ft 187 kts 168°
2026-05-07 16:58 38.25861 27.16692 1643 ft 193 kts 167°
2026-05-07 16:59 38.24348 27.17171 1847 ft 207 kts 168°
2026-05-07 16:59 38.22751 27.17649 2005 ft 225 kts 168°
2026-05-07 16:59 38.20966 27.18176 2273 ft 239 kts 168°
2026-05-07 16:59 38.19096 27.18498 2649 ft 248 kts 183°
2026-05-07 17:00 38.17211 27.17899 2919 ft 262 kts 209°
2026-05-07 17:00 38.15593 27.16261 3307 ft 271 kts 228°
2026-05-07 17:00 38.14421 27.14012 3918 ft 277 kts 250°
2026-05-07 17:00 38.13851 27.11427 4885 ft 275 kts 258°
2026-05-07 17:01 38.13411 27.08795 5668 ft 280 kts 261°
2026-05-07 17:01 38.13258 27.06064 6545 ft 281 kts 277°
2026-05-07 17:01 38.13777 27.03389 7392 ft 280 kts 291°
2026-05-07 17:01 38.14570 27.00804 8209 ft 281 kts 293°
2026-05-07 17:02 38.15352 26.98226 9050 ft 282 kts 292°
2026-05-07 17:02 38.16107 26.95576 9864 ft 285 kts 291°
2026-05-07 17:02 38.16838 26.92923 10546 ft 290 kts 290°
2026-05-07 17:02 38.17568 26.90245 10985 ft 303 kts 290°
2026-05-07 17:03 38.18341 26.87403 11390 ft 316 kts 290°
2026-05-07 17:03 38.19151 26.84436 11798 ft 330 kts 290°
2026-05-07 17:03 38.19991 26.81364 12121 ft 344 kts 290°
2026-05-07 17:03 38.20860 26.78181 12434 ft 358 kts 290°
2026-05-07 17:04 38.21761 26.74876 12719 ft 371 kts 290°
2026-05-07 17:04 38.22675 26.71517 13077 ft 381 kts 290°
2026-05-07 17:04 38.23621 26.68037 13553 ft 386 kts 290°
2026-05-07 17:04 38.24560 26.64422 14191 ft 388 kts 288°
2026-05-07 17:05 38.25415 26.60870 14755 ft 391 kts 288°
2026-05-07 17:05 38.26269 26.57203 15414 ft 391 kts 288°
2026-05-07 17:05 38.27056 26.53812 15903 ft 394 kts 288°
2026-05-07 17:05 38.27861 26.50361 16350 ft 398 kts 288°
2026-05-07 17:06 38.28684 26.46851 17001 ft 397 kts 288°
2026-05-07 17:06 38.29488 26.43444 17359 ft 403 kts 288°
2026-05-07 17:06 38.30315 26.39945 17831 ft 404 kts 288°
2026-05-07 17:06 38.31188 26.36253 18388 ft 406 kts 288°
2026-05-07 17:07 38.32046 26.32617 18940 ft 406 kts 288°
2026-05-07 17:07 38.32944 26.28810 19432 ft 409 kts 288°
2026-05-07 17:07 38.33821 26.25097 19832 ft 414 kts 287°
2026-05-07 17:07 38.34625 26.21232 20432 ft 415 kts 283°
2026-05-07 17:08 38.35091 26.17205 20815 ft 421 kts 276°
2026-05-07 17:08 38.35241 26.13200 21336 ft 423 kts 274°
2026-05-07 17:08 38.35377 26.09106 21757 ft 427 kts 275°
2026-05-07 17:08 38.35571 26.05291 22133 ft 430 kts 276°
2026-05-07 17:09 38.35802 26.01519 22617 ft 431 kts 276°
2026-05-07 17:09 38.36057 25.97661 22914 ft 435 kts 276°
2026-05-07 17:09 38.36318 25.93817 23374 ft 435 kts 276°
2026-05-07 17:09 38.36582 25.89967 23657 ft 439 kts 276°
2026-05-07 17:10 38.36859 25.85908 24165 ft 438 kts 276°
2026-05-07 17:10 38.37223 25.81876 24526 ft 438 kts 281°
2026-05-07 17:10 38.37974 25.78064 24743 ft 441 kts 290°
2026-05-07 17:10 38.39216 25.74541 25215 ft 439 kts 300°
2026-05-07 17:11 38.40945 25.71267 25520 ft 441 kts 309°
2026-05-07 17:11 38.43111 25.68398 25770 ft 445 kts 318°
2026-05-07 17:11 38.45858 25.65670 26102 ft 447 kts 322°
2026-05-07 17:11 38.48411 25.63440 26514 ft 446 kts 327°
2026-05-07 17:12 38.51183 25.61636 27023 ft 445 kts 336°
2026-05-07 17:12 38.54212 25.60175 27510 ft 442 kts 335°
2026-05-07 17:12 38.57049 25.58427 27904 ft 439 kts 329°
2026-05-07 17:12 38.59693 25.56362 28239 ft 438 kts 324°
2026-05-07 17:13 38.62286 25.54083 28513 ft 438 kts 323°
2026-05-07 17:13 38.64827 25.51729 28778 ft 439 kts 322°
2026-05-07 17:13 38.67247 25.49419 29223 ft 435 kts 322°
2026-05-07 17:13 38.69665 25.47072 29664 ft 431 kts 321°
2026-05-07 17:14 38.72092 25.44693 30179 ft 426 kts 321°
2026-05-07 17:14 38.74433 25.42392 30695 ft 420 kts 321°
2026-05-07 17:14 38.76857 25.40007 31364 ft 410 kts 321°
2026-05-07 17:14 38.79201 25.37697 31927 ft 403 kts 320°
2026-05-07 17:15 38.81582 25.35348 32138 ft 404 kts 320°
2026-05-07 17:15 38.83934 25.33014 32283 ft 406 kts 320°
2026-05-07 17:15 38.86209 25.30755 32573 ft 404 kts 320°
2026-05-07 17:15 38.88446 25.28535 32993 ft 399 kts 320°
2026-05-07 17:16 38.90769 25.26231 33586 ft 390 kts 320°
2026-05-07 17:16 38.92936 25.24078 33950 ft 387 kts 319°
2026-05-07 17:16 38.95106 25.21915 34143 ft 387 kts 319°
2026-05-07 17:16 38.97252 25.19777 34495 ft 383 kts 319°
2026-05-07 17:17 38.99400 25.17641 34881 ft 379 kts 319°
2026-05-07 17:17 39.01535 25.15522 35267 ft 375 kts 319°
2026-05-07 17:17 39.03679 25.13382 35414 ft 376 kts 319°
2026-05-07 17:17 39.05794 25.11261 35643 ft 375 kts 320°
2026-05-07 17:18 39.07887 25.09162 35886 ft 373 kts 319°
2026-05-07 17:18 39.09994 25.07053 36084 ft 372 kts 318°
2026-05-07 17:18 39.14191 25.02852 36083 ft 369 kts 318°
2026-05-07 17:19 39.18462 24.98559 36089 ft 369 kts 319°
2026-05-07 17:19 39.22857 24.94134 36084 ft 369 kts 319°
2026-05-07 17:20 39.27054 24.89914 36084 ft 370 kts 318°
2026-05-07 17:20 39.31314 24.85635 36090 ft 369 kts 319°
2026-05-07 17:21 39.35572 24.81351 36090 ft 371 kts 319°
2026-05-07 17:21 39.39703 24.77198 36087 ft 368 kts 317°
2026-05-07 17:22 39.43805 24.73012 36088 ft 371 kts 317°
2026-05-07 17:22 39.47914 24.68807 36083 ft 367 kts 318°
2026-05-07 17:23 39.52120 24.64541 36082 ft 371 kts 317°
2026-05-07 17:23 39.56284 24.60319 36078 ft 365 kts 319°
2026-05-07 17:24 39.60439 24.56074 36077 ft 369 kts 319°
2026-05-07 17:24 39.64623 24.51803 36077 ft 371 kts 317°
2026-05-07 17:25 39.68820 24.47515 36074 ft 369 kts 318°
2026-05-07 17:25 39.72916 24.43323 36074 ft 369 kts 317°
2026-05-07 17:26 39.77189 24.38940 36075 ft 370 kts 318°
2026-05-07 17:26 39.81396 24.34621 36071 ft 369 kts 318°
2026-05-07 17:27 39.85652 24.30242 36071 ft 368 kts 317°
2026-05-07 17:27 39.89882 24.25917 36071 ft 371 kts 317°
2026-05-07 17:28 39.94304 24.21349 36069 ft 370 kts 317°
2026-05-07 17:28 39.98738 24.16749 36069 ft 370 kts 318°
2026-05-07 17:29 40.03272 24.12047 36073 ft 372 kts 317°
2026-05-07 17:29 40.07492 24.07659 36071 ft 370 kts 317°
2026-05-07 17:30 40.11747 24.03240 36072 ft 373 kts 317°
2026-05-07 17:30 40.16409 23.98387 36069 ft 373 kts 316°
2026-05-07 17:31 40.21051 23.93489 36066 ft 372 kts 317°
2026-05-07 17:31 40.25689 23.88691 36069 ft 372 kts 316°
2026-05-07 17:32 40.30282 23.83888 36079 ft 374 kts 315°
2026-05-07 17:32 40.34940 23.79009 36076 ft 371 kts 317°
2026-05-07 17:33 40.39511 23.74174 36074 ft 374 kts 316°
2026-05-07 17:33 40.43976 23.69516 36089 ft 372 kts 317°
2026-05-07 17:34 40.48586 23.64652 36098 ft 373 kts 315°
2026-05-07 17:34 40.53137 23.59819 36101 ft 374 kts 315°
2026-05-07 17:35 40.57746 23.54921 36104 ft 377 kts 316°
2026-05-07 17:35 40.62346 23.49989 36100 ft 373 kts 317°
2026-05-07 17:36 40.66924 23.45177 36100 ft 375 kts 316°
2026-05-07 17:36 40.71476 23.40361 36101 ft 375 kts 316°
2026-05-07 17:37 40.75980 23.35563 36091 ft 374 kts 316°
2026-05-07 17:37 40.80308 23.30933 36093 ft 374 kts 316°
2026-05-07 17:38 40.84884 23.26052 36091 ft 375 kts 314°
2026-05-07 17:38 40.89497 23.21127 36090 ft 376 kts 316°
2026-05-07 17:39 40.94126 23.16163 36086 ft 377 kts 314°
2026-05-07 17:39 40.98691 23.11235 36092 ft 376 kts 315°
2026-05-07 17:40 41.03276 23.06288 36087 ft 376 kts 314°
2026-05-07 17:40 41.07910 23.01284 36086 ft 379 kts 314°
2026-05-07 17:41 41.12135 22.95741 36097 ft 374 kts 307°
2026-05-07 17:41 41.16005 22.89688 36100 ft 375 kts 306°
2026-05-07 17:42 41.19823 22.83639 36095 ft 375 kts 306°
2026-05-07 17:42 41.23648 22.77585 36093 ft 373 kts 307°
2026-05-07 17:43 41.27342 22.71874 36087 ft 376 kts 308°
2026-05-07 17:43 41.31341 22.66092 36082 ft 377 kts 308°
2026-05-07 17:44 41.35336 22.60345 36091 ft 375 kts 308°
2026-05-07 17:44 41.39318 22.54513 36098 ft 377 kts 308°
2026-05-07 17:45 41.43333 22.48599 36109 ft 379 kts 308°
2026-05-07 17:45 41.47316 22.42708 36102 ft 381 kts 308°
2026-05-07 17:46 41.51336 22.36792 36105 ft 373 kts 308°
2026-05-07 17:46 41.55213 22.31090 36107 ft 378 kts 308°
2026-05-07 17:47 41.59141 22.25310 36100 ft 375 kts 308°
2026-05-07 17:47 41.63072 22.19430 36088 ft 379 kts 307°
2026-05-07 17:48 41.67038 22.13517 36094 ft 377 kts 308°
2026-05-07 17:48 41.70948 22.07688 36110 ft 380 kts 307°
2026-05-07 17:49 41.74866 22.01835 36093 ft 381 kts 307°
2026-05-07 17:49 41.78771 21.95981 36101 ft 379 kts 307°
2026-05-07 17:50 41.82722 21.90033 36093 ft 382 kts 308°
2026-05-07 17:50 41.86560 21.84282 36091 ft 382 kts 308°
2026-05-07 17:51 41.90419 21.78475 36083 ft 383 kts 308°
2026-05-07 17:51 41.94307 21.72619 36090 ft 382 kts 308°
2026-05-07 17:52 41.98245 21.66664 36089 ft 383 kts 307°
2026-05-07 17:52 42.02033 21.60919 36092 ft 381 kts 308°
2026-05-07 17:53 42.05695 21.55339 36088 ft 381 kts 308°
2026-05-07 17:53 42.09557 21.49429 36087 ft 383 kts 308°
2026-05-07 17:54 42.13377 21.43615 36097 ft 384 kts 308°
2026-05-07 17:54 42.17228 21.37742 36085 ft 382 kts 307°
2026-05-07 17:55 42.20275 21.32945 36096 ft 383 kts 306°
2026-05-07 17:56 42.28952 21.19133 36084 ft 389 kts 306°
2026-05-07 17:56 42.32937 21.12790 36095 ft 388 kts 306°
2026-05-07 17:57 42.36147 21.07646 36094 ft 390 kts 306°
2026-05-07 17:57 42.40730 21.00331 36098 ft 390 kts 305°
2026-05-07 17:58 42.44617 20.94097 36110 ft 391 kts 306°
2026-05-07 17:58 42.48520 20.87813 36101 ft 394 kts 305°
2026-05-07 17:59 42.52401 20.81574 36105 ft 396 kts 306°
2026-05-07 17:59 42.56297 20.75268 36098 ft 397 kts 306°
2026-05-07 18:00 42.60193 20.68980 36093 ft 396 kts 305°
2026-05-07 18:00 42.64138 20.62597 36084 ft 398 kts 306°
2026-05-07 18:01 42.68055 20.56246 36090 ft 397 kts 306°
2026-05-07 18:01 42.72002 20.49846 36086 ft 398 kts 305°
2026-05-07 18:02 42.77826 20.40299 36105 ft 397 kts 306°
2026-05-07 18:03 42.81710 20.33943 36122 ft 400 kts 305°
2026-05-07 18:03 42.85696 20.27491 36132 ft 399 kts 307°
2026-05-07 18:04 42.89756 20.21289 36130 ft 401 kts 307°
2026-05-07 18:04 42.93709 20.15290 36125 ft 401 kts 307°
2026-05-07 18:05 42.97823 20.08947 36117 ft 402 kts 307°
2026-05-07 18:05 43.01974 20.02542 36120 ft 402 kts 307°
2026-05-07 18:06 43.06073 19.96212 36121 ft 401 kts 307°
2026-05-07 18:06 43.10225 19.89774 36127 ft 404 kts 306°
2026-05-07 18:06 43.12290 19.86568 35926 ft 401 kts 307°
2026-05-07 18:07 43.14335 19.83390 36088 ft 401 kts 306°
2026-05-07 18:07 43.18410 19.77006 36097 ft 405 kts 307°
2026-05-07 18:08 43.22457 19.70691 36099 ft 405 kts 306°
2026-05-07 18:08 43.26454 19.64435 36091 ft 407 kts 307°
2026-05-07 18:09 43.30542 19.58038 36100 ft 408 kts 307°
2026-05-07 18:09 43.34702 19.51502 36092 ft 409 kts 307°
2026-05-07 18:10 43.38819 19.45014 36091 ft 410 kts 306°
2026-05-07 18:10 43.42966 19.38461 36092 ft 410 kts 306°
2026-05-07 18:11 43.47036 19.32019 36090 ft 413 kts 306°
2026-05-07 18:11 43.51206 19.25405 36094 ft 412 kts 306°
2026-05-07 18:12 43.55378 19.18758 36098 ft 414 kts 305°
2026-05-07 18:12 43.59463 19.12251 36094 ft 415 kts 306°
2026-05-07 18:13 43.63504 19.05798 36094 ft 415 kts 305°
2026-05-07 18:13 43.67622 18.99199 36095 ft 415 kts 306°
2026-05-07 18:14 43.71783 18.92517 36096 ft 418 kts 306°
2026-05-07 18:14 43.75964 18.85797 36086 ft 417 kts 306°
2026-05-07 18:15 43.80162 18.79025 36080 ft 421 kts 306°
2026-05-07 18:15 43.84389 18.72196 36078 ft 420 kts 306°
2026-05-07 18:16 43.88620 18.65340 36070 ft 421 kts 306°
2026-05-07 18:16 43.92863 18.58448 36065 ft 421 kts 306°
2026-05-07 18:17 43.97156 18.51456 36062 ft 423 kts 306°
2026-05-07 18:17 44.01429 18.44479 36063 ft 424 kts 306°
2026-05-07 18:18 44.05690 18.37504 36057 ft 425 kts 306°
2026-05-07 18:18 44.09934 18.30539 36062 ft 423 kts 305°
2026-05-07 18:19 44.14211 18.23515 36056 ft 425 kts 305°
2026-05-07 18:19 44.18448 18.16542 36056 ft 424 kts 305°
2026-05-07 18:20 44.22755 18.09425 36055 ft 424 kts 305°
2026-05-07 18:20 44.27021 18.02357 36052 ft 424 kts 305°
2026-05-07 18:21 44.31322 17.95218 36052 ft 424 kts 305°
2026-05-07 18:21 44.35562 17.88162 36051 ft 425 kts 305°
2026-05-07 18:22 44.39758 17.81163 36055 ft 424 kts 304°
2026-05-07 18:22 44.43956 17.74145 36053 ft 425 kts 305°
2026-05-07 18:23 44.47912 17.67515 36047 ft 424 kts 305°
2026-05-07 18:23 44.52068 17.60532 36051 ft 424 kts 304°
2026-05-07 18:24 44.56272 17.53450 36047 ft 423 kts 304°
2026-05-07 18:24 44.60489 17.46324 36039 ft 424 kts 304°
2026-05-07 18:25 44.64778 17.39060 36035 ft 424 kts 304°
2026-05-07 18:25 44.68988 17.31914 36034 ft 425 kts 304°
2026-05-07 18:26 44.73131 17.24861 36027 ft 424 kts 304°
2026-05-07 18:26 44.77235 17.17855 36029 ft 424 kts 304°
2026-05-07 18:27 44.81366 17.10796 36024 ft 425 kts 304°
2026-05-07 18:27 44.85165 17.04287 36026 ft 424 kts 304°
2026-05-07 18:28 44.89259 16.97254 36021 ft 426 kts 304°
2026-05-07 18:28 44.93385 16.90146 36029 ft 426 kts 304°
2026-05-07 18:29 44.97629 16.82816 36021 ft 425 kts 304°
2026-05-07 18:29 45.01848 16.75514 36013 ft 425 kts 304°
2026-05-07 18:30 45.06021 16.68275 36031 ft 424 kts 304°
2026-05-07 18:30 45.10172 16.61044 36022 ft 424 kts 304°
2026-05-07 18:31 45.14329 16.53794 36004 ft 424 kts 304°
2026-05-07 18:31 45.18462 16.46566 36006 ft 424 kts 303°
2026-05-07 18:32 45.22716 16.39108 36001 ft 424 kts 304°
2026-05-07 18:32 45.26896 16.31757 35988 ft 424 kts 303°
2026-05-07 18:33 45.31091 16.24361 35993 ft 424 kts 303°
2026-05-07 18:33 45.35273 16.16971 35986 ft 424 kts 303°
2026-05-07 18:34 45.39451 16.09565 35995 ft 424 kts 303°
2026-05-07 18:34 45.43612 16.02168 35990 ft 424 kts 303°
2026-05-07 18:35 45.47805 15.94704 35985 ft 423 kts 303°
2026-05-07 18:35 45.51981 15.87251 35975 ft 423 kts 303°
2026-05-07 18:36 45.56180 15.79721 35980 ft 424 kts 303°
2026-05-07 18:36 45.60324 15.72284 35997 ft 423 kts 303°
2026-05-07 18:37 45.64489 15.64795 35981 ft 422 kts 303°
2026-05-07 18:37 45.68586 15.57398 35976 ft 423 kts 303°
2026-05-07 18:38 45.72698 15.49948 35982 ft 425 kts 303°
2026-05-07 18:38 45.76775 15.42552 35975 ft 423 kts 303°
2026-05-07 18:39 45.80834 15.35173 35973 ft 423 kts 303°
2026-05-07 18:39 45.84847 15.27859 35976 ft 422 kts 302°
2026-05-07 18:40 45.88862 15.20518 35981 ft 423 kts 302°
2026-05-07 18:40 45.92836 15.13221 35983 ft 423 kts 302°
2026-05-07 18:41 45.96798 15.05934 35984 ft 422 kts 302°
2026-05-07 18:41 46.00761 14.98638 35987 ft 424 kts 302°
2026-05-07 18:42 46.04678 14.91401 35997 ft 424 kts 302°
2026-05-07 18:42 46.08551 14.84229 35991 ft 421 kts 302°
2026-05-07 18:43 46.12364 14.77143 35996 ft 425 kts 303°
2026-05-07 18:43 46.16177 14.70040 35997 ft 424 kts 302°
2026-05-07 18:44 46.19858 14.63167 36012 ft 425 kts 302°
2026-05-07 18:44 46.23600 14.56166 36009 ft 424 kts 302°
2026-05-07 18:45 46.27343 14.49144 35998 ft 425 kts 302°
2026-05-07 18:45 46.31004 14.42258 36008 ft 425 kts 303°
2026-05-07 18:46 46.34694 14.35310 36014 ft 426 kts 303°
2026-05-07 18:46 46.38431 14.28246 36017 ft 424 kts 302°
2026-05-07 18:46 46.40337 14.24634 36213 ft 426 kts 302°
2026-05-07 18:47 46.42279 14.20952 36048 ft 423 kts 302°
2026-05-07 18:47 46.46055 14.13792 36031 ft 421 kts 302°
2026-05-07 18:48 46.49839 14.06568 36028 ft 425 kts 302°
2026-05-07 18:48 46.53599 13.99385 36036 ft 422 kts 302°
2026-05-07 18:49 46.57252 13.92397 36038 ft 421 kts 302°
2026-05-07 18:49 46.60990 13.85220 36047 ft 424 kts 302°
2026-05-07 18:50 46.64751 13.77973 36061 ft 423 kts 302°
2026-05-07 18:50 46.68539 13.70672 36056 ft 423 kts 302°
2026-05-07 18:51 46.72213 13.63570 36058 ft 425 kts 303°
2026-05-07 18:51 46.75995 13.56244 36051 ft 424 kts 303°
2026-05-07 18:52 46.79788 13.48869 36034 ft 424 kts 303°
2026-05-07 18:52 46.83537 13.41558 36042 ft 425 kts 303°
2026-05-07 18:53 46.87264 13.34269 36040 ft 426 kts 302°
2026-05-07 18:53 46.90986 13.26972 36030 ft 423 kts 302°
2026-05-07 18:54 46.94669 13.19735 36022 ft 424 kts 302°
2026-05-07 18:54 46.98395 13.12391 36030 ft 425 kts 302°
2026-05-07 18:55 47.01996 13.05280 36043 ft 425 kts 302°
2026-05-07 18:55 47.05586 12.98169 36037 ft 425 kts 302°
2026-05-07 18:56 47.09226 12.90946 36027 ft 424 kts 302°
2026-05-07 18:56 47.12755 12.83926 36021 ft 424 kts 302°
2026-05-07 18:57 47.16282 12.76879 36043 ft 425 kts 302°
2026-05-07 18:57 47.19821 12.69795 36061 ft 426 kts 302°
2026-05-07 18:58 47.23353 12.62715 36074 ft 426 kts 303°
2026-05-07 18:58 47.26876 12.55634 36073 ft 425 kts 303°
2026-05-07 18:59 47.30379 12.48566 36069 ft 427 kts 303°
2026-05-07 18:59 47.33875 12.41502 36070 ft 427 kts 303°
2026-05-07 19:00 47.37387 12.34386 36075 ft 426 kts 302°
2026-05-07 19:00 47.40884 12.27282 36076 ft 426 kts 302°
2026-05-07 19:01 47.44434 12.20046 36078 ft 427 kts 302°
2026-05-07 19:01 47.47957 12.12853 36075 ft 426 kts 302°
2026-05-07 19:02 47.51440 12.05724 36072 ft 426 kts 302°
2026-05-07 19:02 47.54925 11.98591 36057 ft 428 kts 303°
2026-05-07 19:03 47.58483 11.91503 36056 ft 427 kts 303°
2026-05-07 19:03 47.62066 11.84418 36055 ft 429 kts 303°
2026-05-07 19:04 47.65644 11.77307 36055 ft 429 kts 303°
2026-05-07 19:04 47.69194 11.70220 36055 ft 429 kts 303°
2026-05-07 19:05 47.72756 11.63080 36055 ft 429 kts 303°
2026-05-07 19:05 47.76295 11.55970 36048 ft 429 kts 304°
2026-05-07 19:06 47.79822 11.48863 36044 ft 430 kts 304°
2026-05-07 19:06 47.85121 11.38149 36043 ft 429 kts 304°
2026-05-07 19:07 47.88634 11.31021 36049 ft 431 kts 303°
2026-05-07 19:07 47.92167 11.23836 36044 ft 432 kts 303°
2026-05-07 19:08 47.95708 11.16617 36048 ft 431 kts 303°
2026-05-07 19:08 47.99239 11.09400 36051 ft 431 kts 303°
2026-05-07 19:09 48.02756 11.02184 36053 ft 432 kts 303°
2026-05-07 19:09 48.06262 10.94976 36056 ft 431 kts 303°
2026-05-07 19:10 48.09797 10.87691 36055 ft 431 kts 303°
2026-05-07 19:10 48.13319 10.80412 36057 ft 431 kts 303°
2026-05-07 19:11 48.16837 10.73126 36053 ft 431 kts 303°
2026-05-07 19:11 48.20357 10.65807 36055 ft 432 kts 303°
2026-05-07 19:12 48.23865 10.58498 36053 ft 431 kts 303°
2026-05-07 19:12 48.27344 10.51231 36049 ft 431 kts 303°
2026-05-07 19:13 48.30861 10.43863 36051 ft 432 kts 303°
2026-05-07 19:13 48.34338 10.36559 36041 ft 431 kts 303°
2026-05-07 19:14 48.37812 10.29244 36039 ft 431 kts 303°
2026-05-07 19:14 48.41283 10.21917 36043 ft 431 kts 303°
2026-05-07 19:15 48.44767 10.14541 36038 ft 431 kts 303°
2026-05-07 19:15 48.48239 10.07170 36042 ft 431 kts 303°
2026-05-07 19:16 48.51698 9.99808 36039 ft 431 kts 303°
2026-05-07 19:16 48.55168 9.92399 36038 ft 431 kts 303°
2026-05-07 19:17 48.58613 9.85026 36032 ft 431 kts 303°
2026-05-07 19:17 48.62066 9.77618 36035 ft 432 kts 303°
2026-05-07 19:18 48.65500 9.70226 36033 ft 432 kts 303°
2026-05-07 19:18 48.68969 9.62840 36032 ft 433 kts 304°
2026-05-07 19:19 48.72580 9.55586 36033 ft 433 kts 306°
2026-05-07 19:19 48.76237 9.48333 36039 ft 433 kts 306°
2026-05-07 19:20 48.79868 9.41082 36046 ft 433 kts 306°
2026-05-07 19:20 48.83488 9.33796 36045 ft 433 kts 304°
2026-05-07 19:21 48.87081 9.26530 36040 ft 433 kts 304°
2026-05-07 19:21 48.90684 9.19214 36044 ft 434 kts 304°
2026-05-07 19:22 48.94295 9.11863 36045 ft 434 kts 304°
2026-05-07 19:22 48.97894 9.04513 36041 ft 434 kts 304°
2026-05-07 19:23 49.01487 8.97155 36041 ft 435 kts 305°
2026-05-07 19:23 49.05072 8.89795 36047 ft 435 kts 305°
2026-05-07 19:24 49.08656 8.82415 36043 ft 435 kts 305°
2026-05-07 19:24 49.12237 8.75019 36049 ft 435 kts 305°
2026-05-07 19:25 49.15814 8.67614 36047 ft 435 kts 305°
2026-05-07 19:25 49.19401 8.60168 36050 ft 435 kts 305°
2026-05-07 19:26 49.22974 8.52728 36051 ft 435 kts 305°
2026-05-07 19:26 49.26516 8.45332 36051 ft 435 kts 305°
2026-05-07 19:27 49.30090 8.37848 36061 ft 436 kts 305°
2026-05-07 19:27 49.33650 8.30376 36053 ft 436 kts 304°
2026-05-07 19:28 49.37212 8.22876 36055 ft 436 kts 304°
2026-05-07 19:28 49.40762 8.15383 36042 ft 436 kts 304°
2026-05-07 19:29 49.44322 8.07848 36049 ft 436 kts 304°
2026-05-07 19:29 49.47859 8.00339 36047 ft 436 kts 304°
2026-05-07 19:30 49.51395 7.92809 36047 ft 435 kts 304°
2026-05-07 19:30 49.54915 7.85295 36045 ft 436 kts 304°
2026-05-07 19:31 49.58460 7.77706 36041 ft 437 kts 304°
2026-05-07 19:31 49.61982 7.70144 36044 ft 436 kts 304°
2026-05-07 19:32 49.65511 7.62545 36042 ft 437 kts 304°
2026-05-07 19:32 49.69038 7.54927 36049 ft 436 kts 304°
2026-05-07 19:33 49.72555 7.47307 36055 ft 437 kts 304°
2026-05-07 19:33 49.76071 7.39670 36060 ft 437 kts 304°
2026-05-07 19:34 49.79585 7.32019 36058 ft 437 kts 303°
2026-05-07 19:34 49.83110 7.24319 36054 ft 437 kts 303°
2026-05-07 19:35 49.86640 7.16589 36056 ft 437 kts 303°
2026-05-07 19:35 49.90144 7.08892 35891 ft 435 kts 303°
2026-05-07 19:36 49.91884 7.05060 35997 ft 435 kts 303°
2026-05-07 19:36 49.93636 7.01196 36035 ft 438 kts 303°
2026-05-07 19:36 49.97137 6.93454 36049 ft 441 kts 303°
2026-05-07 19:37 50.00647 6.85674 36051 ft 439 kts 303°
2026-05-07 19:37 50.04152 6.77883 36052 ft 440 kts 303°
2026-05-07 19:38 50.07641 6.70108 36050 ft 440 kts 303°
2026-05-07 19:38 50.11121 6.62326 36045 ft 440 kts 303°
2026-05-07 19:39 50.12872 6.58402 36363 ft 441 kts 303°
2026-05-07 19:39 50.14621 6.54477 35880 ft 440 kts 303°
2026-05-07 19:39 50.18063 6.46736 36011 ft 437 kts 303°
2026-05-07 19:40 50.19780 6.42800 36255 ft 442 kts 302°
2026-05-07 19:40 50.21415 6.38818 36098 ft 438 kts 301°
2026-05-07 19:40 50.24560 6.30764 36045 ft 435 kts 299°
2026-05-07 19:41 50.27683 6.22662 35781 ft 438 kts 299°
2026-05-07 19:41 50.29259 6.18588 35884 ft 436 kts 299°
2026-05-07 19:41 50.30819 6.14565 36162 ft 440 kts 300°
2026-05-07 19:42 50.33978 6.06441 36052 ft 436 kts 299°
2026-05-07 19:42 50.37133 5.98327 36046 ft 439 kts 300°
2026-05-07 19:43 50.40287 5.90197 36044 ft 438 kts 300°
2026-05-07 19:43 50.43452 5.82022 36068 ft 438 kts 300°
2026-05-07 19:44 50.46616 5.73820 36058 ft 438 kts 300°
2026-05-07 19:44 50.49781 5.65591 36062 ft 439 kts 300°
2026-05-07 19:45 50.52929 5.57381 36063 ft 438 kts 300°
2026-05-07 19:45 50.56050 5.49215 36067 ft 438 kts 300°
2026-05-07 19:46 50.59183 5.40994 36066 ft 438 kts 300°
2026-05-07 19:46 50.62296 5.32798 36066 ft 438 kts 299°
2026-05-07 19:47 50.65416 5.24558 36066 ft 438 kts 299°
2026-05-07 19:47 50.68520 5.16335 36064 ft 438 kts 299°
2026-05-07 19:48 50.71635 5.08049 36064 ft 438 kts 299°
2026-05-07 19:48 50.74713 4.99840 36065 ft 438 kts 299°
2026-05-07 19:49 50.77816 4.91539 36071 ft 438 kts 299°
2026-05-07 19:49 50.80893 4.83283 36069 ft 438 kts 299°
2026-05-07 19:50 50.83941 4.75078 36071 ft 437 kts 299°
2026-05-07 19:50 50.87015 4.66772 36075 ft 438 kts 299°
2026-05-07 19:51 50.90069 4.58498 36074 ft 438 kts 299°
2026-05-07 19:51 50.93124 4.50195 36071 ft 438 kts 299°
2026-05-07 19:52 50.96188 4.41838 36078 ft 437 kts 299°
2026-05-07 19:52 50.99227 4.33524 36076 ft 437 kts 298°
2026-05-07 19:53 51.02262 4.25188 36076 ft 438 kts 298°
2026-05-07 19:53 51.05301 4.16819 36075 ft 437 kts 298°
2026-05-07 19:54 51.08318 4.08483 36068 ft 437 kts 298°
2026-05-07 19:54 51.11350 4.00038 36077 ft 437 kts 296°
2026-05-07 19:55 51.13569 3.91129 36072 ft 435 kts 285°
2026-05-07 19:55 51.15204 3.81853 36067 ft 434 kts 284°
2026-05-07 19:56 51.16805 3.72658 36065 ft 435 kts 285°
2026-05-07 19:56 51.18509 3.63398 36063 ft 435 kts 285°
2026-05-07 19:57 51.20279 3.54096 36061 ft 435 kts 286°
2026-05-07 19:57 51.22044 3.44908 36061 ft 435 kts 286°
2026-05-07 19:58 51.23817 3.35673 36059 ft 435 kts 286°
2026-05-07 19:58 51.25590 3.26396 36057 ft 436 kts 285°
2026-05-07 19:59 51.27364 3.17077 36062 ft 436 kts 285°
2026-05-07 19:59 51.29114 3.07841 36055 ft 436 kts 285°
2026-05-07 20:00 51.30866 2.98542 36054 ft 436 kts 285°
2026-05-07 20:00 51.32631 2.89128 36059 ft 436 kts 285°
2026-05-07 20:01 51.34459 2.79333 36062 ft 435 kts 285°
2026-05-07 20:01 51.36107 2.69469 36058 ft 435 kts 281°
2026-05-07 20:02 51.37325 2.59500 36062 ft 436 kts 279°
2026-05-07 20:02 51.38466 2.49515 36060 ft 436 kts 279°
2026-05-07 20:03 51.39635 2.39488 36066 ft 436 kts 280°
2026-05-07 20:03 51.40796 2.29701 36065 ft 436 kts 279°
2026-05-07 20:04 51.41954 2.20037 36065 ft 435 kts 279°
2026-05-07 20:04 51.43126 2.10407 36066 ft 435 kts 279°
2026-05-07 20:05 51.44288 2.00840 36068 ft 435 kts 279°
2026-05-07 20:05 51.45428 1.91293 36067 ft 435 kts 279°
2026-05-07 20:06 51.46540 1.81795 36072 ft 436 kts 279°
2026-05-07 20:06 51.47644 1.72227 36063 ft 436 kts 279°
2026-05-07 20:07 51.48740 1.62644 36071 ft 435 kts 279°
2026-05-07 20:07 51.49827 1.53084 36068 ft 435 kts 279°
2026-05-07 20:08 51.50919 1.43412 36069 ft 434 kts 279°
2026-05-07 20:08 51.51984 1.33918 36072 ft 435 kts 278°
2026-05-07 20:09 51.53054 1.24296 36072 ft 435 kts 278°
2026-05-07 20:10 51.54584 1.09964 36070 ft 435 kts 276°
2026-05-07 20:10 51.55249 1.00281 36069 ft 434 kts 274°
2026-05-07 20:11 51.55787 0.90675 36073 ft 435 kts 274°
2026-05-07 20:11 51.56337 0.81031 36068 ft 434 kts 274°
2026-05-07 20:12 51.56908 0.71369 36069 ft 435 kts 274°
2026-05-07 20:12 51.57484 0.61782 36069 ft 434 kts 274°
2026-05-07 20:13 51.58062 0.52122 36065 ft 434 kts 275°
2026-05-07 20:13 51.58632 0.42499 36068 ft 434 kts 275°
2026-05-07 20:14 51.59195 0.32866 36067 ft 434 kts 274°
2026-05-07 20:14 51.59754 0.23170 36063 ft 435 kts 274°
2026-05-07 20:15 51.60302 0.13517 36063 ft 435 kts 274°
2026-05-07 20:15 51.60840 0.03903 36058 ft 435 kts 274°
2026-05-07 20:16 51.61371 -0.05731 36058 ft 434 kts 274°
2026-05-07 20:16 51.61904 -0.15401 36057 ft 434 kts 274°
2026-05-07 20:17 51.62488 -0.25017 36059 ft 434 kts 275°
2026-05-07 20:17 51.63088 -0.34660 36057 ft 434 kts 275°
2026-05-07 20:18 51.63679 -0.44344 36055 ft 434 kts 275°
2026-05-07 20:18 51.64256 -0.54004 36058 ft 435 kts 274°
2026-05-07 20:19 51.64822 -0.63661 36055 ft 435 kts 274°
2026-05-07 20:19 51.65381 -0.73364 36057 ft 436 kts 274°
2026-05-07 20:20 51.65931 -0.83066 36052 ft 435 kts 274°
2026-05-07 20:20 51.66472 -0.92734 36049 ft 435 kts 274°
2026-05-07 20:21 51.67003 -1.02388 36050 ft 434 kts 274°
2026-05-07 20:21 51.67532 -1.12154 36044 ft 435 kts 274°
2026-05-07 20:22 51.68053 -1.21934 36041 ft 435 kts 274°
2026-05-07 20:22 51.68569 -1.31749 36039 ft 435 kts 273°
2026-05-07 20:23 51.69075 -1.41551 36037 ft 436 kts 273°
2026-05-07 20:23 51.69570 -1.51292 36035 ft 436 kts 273°
2026-05-07 20:24 51.70063 -1.61155 36033 ft 436 kts 273°
2026-05-07 20:24 51.70554 -1.70910 36033 ft 437 kts 274°
2026-05-07 20:25 51.71218 -1.80731 36032 ft 437 kts 275°
2026-05-07 20:25 51.71950 -1.90419 36031 ft 438 kts 275°
2026-05-07 20:26 51.72675 -2.00179 36029 ft 437 kts 275°
2026-05-07 20:26 51.73380 -2.09984 36028 ft 437 kts 275°
2026-05-07 20:27 51.74066 -2.19775 36027 ft 437 kts 275°
2026-05-07 20:27 51.74742 -2.29595 36025 ft 437 kts 275°
2026-05-07 20:28 51.75403 -2.39364 36024 ft 438 kts 275°
2026-05-07 20:28 51.76056 -2.49151 36025 ft 439 kts 275°
2026-05-07 20:29 51.76697 -2.58872 36022 ft 439 kts 274°
2026-05-07 20:29 51.77342 -2.68791 36018 ft 439 kts 274°
2026-05-07 20:30 51.77981 -2.78741 36015 ft 439 kts 274°
2026-05-07 20:30 51.78624 -2.88880 36012 ft 440 kts 274°
2026-05-07 20:31 51.79254 -2.98958 36005 ft 439 kts 274°
2026-05-07 20:31 51.79877 -3.09063 35996 ft 439 kts 274°
2026-05-07 20:32 51.80491 -3.19147 35993 ft 439 kts 274°
2026-05-07 20:32 51.81100 -3.29310 35991 ft 439 kts 274°
2026-05-07 20:33 51.81706 -3.39562 35994 ft 440 kts 274°
2026-05-07 20:33 51.82302 -3.49815 35999 ft 440 kts 274°
2026-05-07 20:34 51.83225 -3.60488 36004 ft 441 kts 279°
2026-05-07 20:34 51.84618 -3.71063 36009 ft 441 kts 280°
2026-05-07 20:35 51.85997 -3.81185 36016 ft 440 kts 279°
2026-05-07 20:35 51.87330 -3.91275 36019 ft 441 kts 279°
2026-05-07 20:36 51.88644 -4.01527 36022 ft 441 kts 279°
2026-05-07 20:36 51.90008 -4.12362 36022 ft 441 kts 279°
2026-05-07 20:37 51.91375 -4.23298 36017 ft 441 kts 279°
2026-05-07 20:37 51.92684 -4.33864 36019 ft 441 kts 279°
2026-05-07 20:38 51.94008 -4.44608 36010 ft 441 kts 279°
2026-05-07 20:38 51.95285 -4.55079 36017 ft 441 kts 279°
2026-05-07 20:39 51.96520 -4.65275 36006 ft 441 kts 278°
2026-05-07 20:39 51.97702 -4.75110 36016 ft 441 kts 278°
2026-05-07 20:40 51.98869 -4.84897 36005 ft 441 kts 278°
2026-05-07 20:40 52.00024 -4.94651 36006 ft 440 kts 278°
2026-05-07 20:41 52.01174 -5.04439 36004 ft 441 kts 278°
2026-05-07 20:41 52.02280 -5.14309 36002 ft 441 kts 276°
2026-05-07 20:42 52.02721 -5.24266 36001 ft 438 kts 267°
2026-05-07 20:42 52.02362 -5.34381 36000 ft 436 kts 264°
2026-05-07 20:43 52.01833 -5.44404 35997 ft 436 kts 264°
2026-05-07 20:43 52.01302 -5.54416 35994 ft 437 kts 264°
2026-05-07 20:44 52.00790 -5.64329 35991 ft 437 kts 264°
2026-05-07 20:44 52.00284 -5.74218 35993 ft 438 kts 263°
2026-05-07 20:45 51.99775 -5.84093 35977 ft 437 kts 263°
2026-05-07 20:45 51.99269 -5.93814 35699 ft 428 kts 263°
2026-05-07 20:45 51.99015 -5.98629 34946 ft 436 kts 263°
2026-05-07 20:46 51.98741 -6.03763 34106 ft 441 kts 263°
2026-05-07 20:46 51.98472 -6.08788 33401 ft 440 kts 263°
2026-05-07 20:46 51.98204 -6.13728 32595 ft 441 kts 263°
2026-05-07 20:46 51.97934 -6.18687 31739 ft 444 kts 263°
2026-05-07 20:47 51.97657 -6.23731 30858 ft 445 kts 263°
2026-05-07 20:47 51.97382 -6.28710 29863 ft 448 kts 263°
2026-05-07 20:47 51.97100 -6.33771 28828 ft 452 kts 263°
2026-05-07 20:47 51.96818 -6.38809 27751 ft 455 kts 263°
2026-05-07 20:48 51.96512 -6.44247 26668 ft 456 kts 263°
2026-05-07 20:48 51.96225 -6.49306 25691 ft 457 kts 263°
2026-05-07 20:48 51.95931 -6.54451 24642 ft 458 kts 263°
2026-05-07 20:48 51.95637 -6.59563 23945 ft 451 kts 263°
2026-05-07 20:49 51.95336 -6.64774 23162 ft 446 kts 263°
2026-05-07 20:49 51.95044 -6.69826 22397 ft 440 kts 262°
2026-05-07 20:49 51.94757 -6.74722 21611 ft 436 kts 262°
2026-05-07 20:49 51.94471 -6.79562 20869 ft 431 kts 262°
2026-05-07 20:50 51.94182 -6.84411 20109 ft 426 kts 262°
2026-05-07 20:50 51.93895 -6.89174 19360 ft 422 kts 262°
2026-05-07 20:50 51.93610 -6.93846 18643 ft 416 kts 262°
2026-05-07 20:50 51.93328 -6.98421 17888 ft 413 kts 262°
2026-05-07 20:51 51.93038 -7.03080 17134 ft 408 kts 262°
2026-05-07 20:51 51.92755 -7.07571 16370 ft 405 kts 263°
2026-05-07 20:51 51.92470 -7.12078 15621 ft 402 kts 263°
2026-05-07 20:51 51.92187 -7.16548 14863 ft 398 kts 263°
2026-05-07 20:52 51.91905 -7.20990 14130 ft 394 kts 263°
2026-05-07 20:52 51.91627 -7.25365 13416 ft 390 kts 263°
2026-05-07 20:52 51.91348 -7.29732 12680 ft 386 kts 263°
2026-05-07 20:52 51.91074 -7.34006 11950 ft 382 kts 263°
2026-05-07 20:53 51.90801 -7.38236 11349 ft 375 kts 263°
2026-05-07 20:53 51.90534 -7.42354 11112 ft 359 kts 263°
2026-05-07 20:53 51.90281 -7.46267 10993 ft 341 kts 263°
2026-05-07 20:53 51.90036 -7.50009 10883 ft 325 kts 263°
2026-05-07 20:54 51.89803 -7.53532 10758 ft 311 kts 263°
2026-05-07 20:54 51.89579 -7.56936 10620 ft 299 kts 263°
2026-05-07 20:54 51.89363 -7.60194 10479 ft 284 kts 263°
2026-05-07 20:54 51.89154 -7.63316 10309 ft 273 kts 263°
2026-05-07 20:55 51.88948 -7.66361 9861 ft 276 kts 262°
2026-05-07 20:55 51.88744 -7.69414 9600 ft 270 kts 263°
2026-05-07 20:55 51.88548 -7.72406 9298 ft 267 kts 263°
2026-05-07 20:55 51.88348 -7.75401 8853 ft 269 kts 262°
2026-05-07 20:56 51.88141 -7.78416 8566 ft 265 kts 263°
2026-05-07 20:56 51.88023 -7.81338 8291 ft 262 kts 271°
2026-05-07 20:56 51.88412 -7.84208 7990 ft 262 kts 294°
2026-05-07 20:56 51.89291 -7.86819 7989 ft 267 kts 300°
2026-05-07 20:57 51.90288 -7.89557 7987 ft 268 kts 299°
2026-05-07 20:57 51.91239 -7.92294 7989 ft 267 kts 298°
2026-05-07 20:57 51.92140 -7.94981 7980 ft 267 kts 297°
2026-05-07 20:57 51.93050 -7.97750 7984 ft 267 kts 297°
2026-05-07 20:58 51.93958 -8.00520 7985 ft 268 kts 297°
2026-05-07 20:58 51.94845 -8.03218 7978 ft 268 kts 297°
2026-05-07 20:58 51.95765 -8.06013 7984 ft 268 kts 297°
2026-05-07 20:58 51.96698 -8.08853 7982 ft 269 kts 297°
2026-05-07 20:59 51.97618 -8.11653 7981 ft 268 kts 297°
2026-05-07 20:59 51.98546 -8.14491 7983 ft 269 kts 297°
2026-05-07 20:59 51.99419 -8.17158 7902 ft 261 kts 297°
2026-05-07 20:59 52.00267 -8.19747 7694 ft 263 kts 297°
2026-05-07 21:00 52.01142 -8.22429 7392 ft 268 kts 297°
2026-05-07 21:00 52.02017 -8.25112 7091 ft 264 kts 297°
2026-05-07 21:00 52.02882 -8.27765 6699 ft 264 kts 297°
2026-05-07 21:00 52.03759 -8.30461 6373 ft 262 kts 297°
2026-05-07 21:01 52.04595 -8.33039 6074 ft 258 kts 297°
2026-05-07 21:01 52.05450 -8.35687 5729 ft 256 kts 297°
2026-05-07 21:01 52.06284 -8.38261 5400 ft 254 kts 297°
2026-05-07 21:01 52.07084 -8.40824 5073 ft 252 kts 292°
2026-05-07 21:02 52.07532 -8.43528 4961 ft 242 kts 271°
2026-05-07 21:02 52.07244 -8.46149 4767 ft 234 kts 250°
2026-05-07 21:02 52.06644 -8.48588 4517 ft 234 kts 248°
2026-05-07 21:02 52.05993 -8.51217 4243 ft 235 kts 249°
2026-05-07 21:03 52.05418 -8.53675 4139 ft 225 kts 250°
2026-05-07 21:03 52.04872 -8.56036 4073 ft 212 kts 248°
2026-05-07 21:03 52.04143 -8.58119 4000 ft 199 kts 227°
2026-05-07 21:03 52.02940 -8.59269 3900 ft 197 kts 194°
2026-05-07 21:04 52.01528 -8.59246 3750 ft 197 kts 170°
2026-05-07 21:04 52.00230 -8.58611 3571 ft 189 kts 164°
2026-05-07 21:04 51.99017 -8.57916 3387 ft 181 kts 163°
2026-05-07 21:04 51.97827 -8.57217 3268 ft 179 kts 163°
2026-05-07 21:05 51.96685 -8.56540 3012 ft 170 kts 163°
2026-05-07 21:05 51.95604 -8.55896 2790 ft 160 kts 163°
2026-05-07 21:05 51.94565 -8.55282 2543 ft 156 kts 163°
2026-05-07 21:05 51.93505 -8.54655 2320 ft 156 kts 163°
2026-05-07 21:06 51.92419 -8.54011 2088 ft 154 kts 163°
2026-05-07 21:06 51.91400 -8.53408 1871 ft 154 kts 163°
2026-05-07 21:06 51.90386 -8.52807 1656 ft 154 kts 163°
2026-05-07 21:06 51.89364 -8.52203 1439 ft 153 kts 163°
2026-05-07 21:07 51.88361 -8.51610 1229 ft 153 kts 162°
2026-05-07 21:07 51.87363 -8.51021 1019 ft 152 kts 162°
2026-05-07 21:07 51.86362 -8.50417 799 ft 151 kts 161°
2026-05-07 21:07 51.85370 -8.49849 595 ft 149 kts 162°
2026-05-07 21:08 51.84417 -8.49279 491 ft 116 kts 160°
2026-05-07 21:08 51.83934 -8.48994 475 ft 45 kts 159°
2026-05-07 21:08 51.83622 -8.48807 470 ft 45 kts 163°
2026-05-07 21:08 51.83366 -8.48660 470 ft 31 kts 159°
2026-05-07 21:09 51.83279 -8.48560 469 ft 7 kts 222°
2026-05-07 21:09 51.83300 -8.48616 469 ft 8 kts 329°
2026-05-07 21:09 51.83367 -8.48662 470 ft 13 kts 338°
2026-05-07 21:09 51.83470 -8.48728 470 ft 18 kts 340°
2026-05-07 21:10 51.83614 -8.48812 470 ft 24 kts 341°
2026-05-07 21:10 51.83770 -8.48902 472 ft 22 kts 340°
2026-05-07 21:10 51.83909 -8.48987 475 ft 20 kts 340°
2026-05-07 21:10 51.84031 -8.49058 478 ft 17 kts 342°
2026-05-07 21:11 51.84160 -8.49131 483 ft 22 kts 341°
2026-05-07 21:11 51.84331 -8.49232 490 ft 29 kts 340°
2026-05-07 21:11 51.84698 -8.49451 496 ft 18 kts 339°
2026-05-07 21:12 51.84775 -8.49420 498 ft 9 kts 67°
2026-05-07 21:12 51.84790 -8.49357 501 ft 3 kts 71°
2026-05-07 21:12 51.84799 -8.49313 503 ft 4 kts 71°
2026-05-07 21:12 51.84811 -8.49260 505 ft 4 kts 62°
2026-05-07 21:13 51.84840 -8.49236 507 ft 6 kts
2026-05-07 21:13 51.84864 -8.49203 508 ft 5 kts 69°
2026-05-07 21:13 51.84873 -8.49165 511 ft 0 kts 71°
2026-05-07 21:13 51.84876 -8.49150 511 ft 3 kts 70°
2026-05-07 21:14 51.84882 -8.49125 512 ft 2 kts 70°
2026-05-07 21:14 51.84889 -8.49099 514 ft 0 kts 69°
2026-05-07 21:14 51.84891 -8.49089 514 ft 0 kts 70°
2026-05-07 21:14 51.84891 -8.49087 514 ft 0 kts 70°